owner,sensor,date,latitude,longitude,vertical_datum,wind_speed,wind_to_direction,wind_speed_of_gust,qcFlag 
TCOON,ioos:station:TCOON:003:1,2012-06-01T00:00:00Z,26.8015,-97.4706,0.0,10.6,114.0,11.8,'11111222,11111222,11111222' 
TCOON,ioos:station:TCOON:003:1,2012-06-01T01:00:00Z,26.8015,-97.4706,0.0,9.4,134.0,11.3,'11111222,11111222,11111222' 
TCOON,ioos:station:TCOON:003:1,2012-06-01T02:00:00Z,26.8015,-97.4706,0.0,8.7,147.0,10.2,'11111222,11111222,11111222' 
TCOON,ioos:station:TCOON:003:1,2012-06-01T03:00:00Z,26.8015,-97.4706,0.0,8.1,149.0,9.0,'11111222,11111222,11111222' 
TCOON,ioos:station:TCOON:003:1,2012-06-01T04:00:00Z,26.8015,-97.4706,0.0,9.0,151.0,10.3,'11111222,11111222,11111222' 
TCOON,ioos:station:TCOON:003:1,2012-06-01T05:00:00Z,26.8015,-97.4706,0.0,11.7,158.0,13.2,'11111222,11111222,11111222' 
TCOON,ioos:station:TCOON:003:1,2012-06-01T06:00:00Z,26.8015,-97.4706,0.0,8.4,145.0,9.7,'11111222,11111222,11111222' 
TCOON,ioos:station:TCOON:003:1,2012-06-01T07:00:00Z,26.8015,-97.4706,0.0,10.2,173.0,11.2,'11111222,11111222,11111222' 
TCOON,ioos:station:TCOON:003:1,2012-06-01T08:00:00Z,26.8015,-97.4706,0.0,1.7,130.0,2.4,'11111222,11111222,11111222' 
TCOON,ioos:station:TCOON:003:1,2012-06-01T09:00:00Z,26.8015,-97.4706,0.0,3.0,201.0,4.6,'11111222,11111222,11111222' 
TCOON,ioos:station:TCOON:003:1,2012-06-01T10:00:00Z,26.8015,-97.4706,0.0,0.9,106.0,1.0,'11111222,11111222,11111222' 
TCOON,ioos:station:TCOON:003:1,2012-06-01T11:00:00Z,26.8015,-97.4706,0.0,2.1,113.0,4.3,'11111222,11111222,11111222' 
TCOON,ioos:station:TCOON:003:1,2012-06-01T12:00:00Z,26.8015,-97.4706,0.0,4.1,71.0,5.0,'11111222,11111222,11111222' 
TCOON,ioos:station:TCOON:003:1,2012-06-01T13:00:00Z,26.8015,-97.4706,0.0,4.3,90.0,5.3,'11111222,11111222,11111222' 
TCOON,ioos:station:TCOON:003:1,2012-06-01T14:00:00Z,26.8015,-97.4706,0.0,3.4,104.0,4.6,'11111222,11111222,11111222' 
TCOON,ioos:station:TCOON:003:1,2012-06-01T15:00:00Z,26.8015,-97.4706,0.0,4.6,104.0,5.8,'11111222,11111222,11111222' 
TCOON,ioos:station:TCOON:003:1,2012-06-01T16:00:00Z,26.8015,-97.4706,0.0,5.4,100.0,6.8,'11111222,11111222,11111222' 
TCOON,ioos:station:TCOON:003:1,2012-06-01T17:00:00Z,26.8015,-97.4706,0.0,5.7,87.0,6.7,'11111222,11111222,11111222' 
TCOON,ioos:station:TCOON:003:1,2012-06-01T18:00:00Z,26.8015,-97.4706,0.0,7.4,95.0,9.2,'11111222,11111222,11111222' 
TCOON,ioos:station:TCOON:003:1,2012-06-01T19:00:00Z,26.8015,-97.4706,0.0,6.4,101.0,7.6,'11111222,11111222,11111222' 
TCOON,ioos:station:TCOON:003:1,2012-06-01T20:00:00Z,26.8015,-97.4706,0.0,6.1,123.0,7.2,'11111222,11111222,11111222' 
TCOON,ioos:station:TCOON:003:1,2012-06-01T21:00:00Z,26.8015,-97.4706,0.0,5.7,136.0,7.2,'11111222,11111222,11111222' 
TCOON,ioos:station:TCOON:003:1,2012-06-01T22:00:00Z,26.8015,-97.4706,0.0,6.7,126.0,8.2,'11111222,11111222,11111222' 
TCOON,ioos:station:TCOON:003:1,2012-06-01T23:00:00Z,26.8015,-97.4706,0.0,6.5,131.0,8.0,'11111222,11111222,11111222' 
TCOON,ioos:station:TCOON:003:1,2012-06-02T00:00:00Z,26.8015,-97.4706,0.0,7.3,134.0,8.5,'11111222,11111222,11111222' 
TCOON,ioos:station:TCOON:003:1,2012-06-02T01:00:00Z,26.8015,-97.4706,0.0,6.5,152.0,7.4,'11111222,11111222,11111222' 
TCOON,ioos:station:TCOON:003:1,2012-06-02T02:00:00Z,26.8015,-97.4706,0.0,6.3,139.0,7.2,'11111222,11111222,11111222' 
TCOON,ioos:station:TCOON:003:1,2012-06-02T03:00:00Z,26.8015,-97.4706,0.0,7.4,147.0,8.4,'11111222,11111222,11111222' 
TCOON,ioos:station:TCOON:003:1,2012-06-02T04:00:00Z,26.8015,-97.4706,0.0,7.1,139.0,8.2,'11111222,11111222,11111222' 
TCOON,ioos:station:TCOON:003:1,2012-06-02T05:00:00Z,26.8015,-97.4706,0.0,7.5,136.0,9.1,'11111222,11111222,11111222' 
TCOON,ioos:station:TCOON:003:1,2012-06-02T06:00:00Z,26.8015,-97.4706,0.0,7.3,138.0,8.3,'11111222,11111222,11111222' 
TCOON,ioos:station:TCOON:003:1,2012-06-02T07:00:00Z,26.8015,-97.4706,0.0,5.9,137.0,7.1,'11111222,11111222,11111222' 
TCOON,ioos:station:TCOON:003:1,2012-06-02T08:00:00Z,26.8015,-97.4706,0.0,4.5,140.0,5.5,'11111222,11111222,11111222' 
TCOON,ioos:station:TCOON:003:1,2012-06-02T09:00:00Z,26.8015,-97.4706,0.0,5.4,146.0,6.2,'11111222,11111222,11111222' 
TCOON,ioos:station:TCOON:003:1,2012-06-02T10:00:00Z,26.8015,-97.4706,0.0,5.4,134.0,6.6,'11111222,11111222,11111222' 
TCOON,ioos:station:TCOON:003:1,2012-06-02T11:00:00Z,26.8015,-97.4706,0.0,5.3,138.0,6.5,'11111222,11111222,11111222' 
TCOON,ioos:station:TCOON:003:1,2012-06-02T12:00:00Z,26.8015,-97.4706,0.0,7.3,154.0,8.0,'11111222,11111222,11111222' 
TCOON,ioos:station:TCOON:003:1,2012-06-02T13:00:00Z,26.8015,-97.4706,0.0,8.8,150.0,9.9,'11111222,11111222,11111222' 
TCOON,ioos:station:TCOON:003:1,2012-06-02T14:00:00Z,26.8015,-97.4706,0.0,10.2,157.0,11.0,'11111222,11111222,11111222' 
TCOON,ioos:station:TCOON:003:1,2012-06-02T15:00:00Z,26.8015,-97.4706,0.0,10.7,151.0,11.8,'11111222,11111222,11111222' 
TCOON,ioos:station:TCOON:003:1,2012-06-02T16:00:00Z,26.8015,-97.4706,0.0,9.5,149.0,11.0,'11111222,11111222,11111222' 
TCOON,ioos:station:TCOON:003:1,2012-06-02T17:00:00Z,26.8015,-97.4706,0.0,8.2,150.0,9.9,'11111222,11111222,11111222' 
TCOON,ioos:station:TCOON:003:1,2012-06-02T19:00:00Z,26.8015,-97.4706,0.0,10.4,136.0,12.7,'11111222,11111222,11111222' 
TCOON,ioos:station:TCOON:003:1,2012-06-02T20:00:00Z,26.8015,-97.4706,0.0,11.6,135.0,13.1,'11111222,11111222,11111222' 
TCOON,ioos:station:TCOON:003:1,2012-06-02T21:00:00Z,26.8015,-97.4706,0.0,12.3,137.0,14.0,'11111222,11111222,11111222' 
TCOON,ioos:station:TCOON:003:1,2012-06-02T22:00:00Z,26.8015,-97.4706,0.0,11.7,138.0,13.4,'11111222,11111222,11111222' 
TCOON,ioos:station:TCOON:003:1,2012-06-02T23:00:00Z,26.8015,-97.4706,0.0,11.2,144.0,13.2,'11111222,11111222,11111222' 
TCOON,ioos:station:TCOON:003:1,2012-06-03T00:00:00Z,26.8015,-97.4706,0.0,10.1,149.0,12.2,'11111222,11111222,11111222' 
TCOON,ioos:station:TCOON:003:1,2012-06-03T01:00:00Z,26.8015,-97.4706,0.0,8.5,144.0,10.5,'11111222,11111222,11111222' 
TCOON,ioos:station:TCOON:003:1,2012-06-03T02:00:00Z,26.8015,-97.4706,0.0,9.2,149.0,10.6,'11111222,11111222,11111222' 
TCOON,ioos:station:TCOON:003:1,2012-06-03T03:00:00Z,26.8015,-97.4706,0.0,10.4,145.0,11.5,'11111222,11111222,11111222' 
TCOON,ioos:station:TCOON:003:1,2012-06-03T04:00:00Z,26.8015,-97.4706,0.0,9.0,163.0,10.1,'11111222,11111222,11111222' 
TCOON,ioos:station:TCOON:003:1,2012-06-03T05:00:00Z,26.8015,-97.4706,0.0,5.0,198.0,5.7,'11111222,11111222,11111222' 
TCOON,ioos:station:TCOON:003:1,2012-06-03T06:00:00Z,26.8015,-97.4706,0.0,8.2,173.0,9.4,'11111222,11111222,11111222' 
TCOON,ioos:station:TCOON:003:1,2012-06-03T07:00:00Z,26.8015,-97.4706,0.0,9.2,147.0,11.2,'11111222,11111222,11111222' 
TCOON,ioos:station:TCOON:003:1,2012-06-03T08:00:00Z,26.8015,-97.4706,0.0,9.6,147.0,11.3,'11111222,11111222,11111222' 
TCOON,ioos:station:TCOON:003:1,2012-06-03T09:00:00Z,26.8015,-97.4706,0.0,9.3,149.0,11.5,'11111222,11111222,11111222' 
TCOON,ioos:station:TCOON:003:1,2012-06-03T10:00:00Z,26.8015,-97.4706,0.0,8.0,155.0,9.9,'11111222,11111222,11111222' 
TCOON,ioos:station:TCOON:003:1,2012-06-03T11:00:00Z,26.8015,-97.4706,0.0,8.5,151.0,10.2,'11111222,11111222,11111222' 
TCOON,ioos:station:TCOON:003:1,2012-06-03T12:00:00Z,26.8015,-97.4706,0.0,8.3,152.0,9.2,'11111222,11111222,11111222' 
TCOON,ioos:station:TCOON:003:1,2012-06-03T13:00:00Z,26.8015,-97.4706,0.0,9.0,153.0,10.5,'11111222,11111222,11111222' 
TCOON,ioos:station:TCOON:003:1,2012-06-03T14:00:00Z,26.8015,-97.4706,0.0,9.5,155.0,10.8,'11111222,11111222,11111222' 
TCOON,ioos:station:TCOON:003:1,2012-06-03T15:00:00Z,26.8015,-97.4706,0.0,10.1,157.0,11.3,'11111222,11111222,11111222' 
TCOON,ioos:station:TCOON:003:1,2012-06-03T16:00:00Z,26.8015,-97.4706,0.0,9.0,147.0,11.1,'11111222,11111222,11111222' 
TCOON,ioos:station:TCOON:003:1,2012-06-03T17:00:00Z,26.8015,-97.4706,0.0,9.1,141.0,10.4,'11111222,11111222,11111222' 
TCOON,ioos:station:TCOON:003:1,2012-06-03T18:00:00Z,26.8015,-97.4706,0.0,9.5,142.0,12.2,'11111222,11111222,11111222' 
TCOON,ioos:station:TCOON:003:1,2012-06-03T19:00:00Z,26.8015,-97.4706,0.0,10.1,139.0,13.1,'11111222,11111222,11111222' 
TCOON,ioos:station:TCOON:003:1,2012-06-03T20:00:00Z,26.8015,-97.4706,0.0,10.4,136.0,13.2,'11111222,11111222,11111222' 
TCOON,ioos:station:TCOON:003:1,2012-06-03T21:00:00Z,26.8015,-97.4706,0.0,10.7,137.0,12.2,'11111222,11111222,11111222' 
TCOON,ioos:station:TCOON:003:1,2012-06-03T22:00:00Z,26.8015,-97.4706,0.0,10.2,136.0,11.2,'11111222,11111222,11111222' 
TCOON,ioos:station:TCOON:003:1,2012-06-03T23:00:00Z,26.8015,-97.4706,0.0,9.6,138.0,10.9,'11111222,11111222,11111222' 
TCOON,ioos:station:TCOON:003:1,2012-06-04T00:00:00Z,26.8015,-97.4706,0.0,10.1,142.0,11.5,'11111222,11111222,11111222' 
TCOON,ioos:station:TCOON:003:1,2012-06-04T01:00:00Z,26.8015,-97.4706,0.0,9.1,147.0,11.4,'11111222,11111222,11111222' 
TCOON,ioos:station:TCOON:003:1,2012-06-04T02:00:00Z,26.8015,-97.4706,0.0,9.7,156.0,12.7,'11111222,11111222,11111222' 
TCOON,ioos:station:TCOON:003:1,2012-06-04T03:00:00Z,26.8015,-97.4706,0.0,8.9,156.0,10.8,'11111222,11111222,11111222' 
TCOON,ioos:station:TCOON:003:1,2012-06-04T04:00:00Z,26.8015,-97.4706,0.0,8.5,145.0,10.5,'11111222,11111222,11111222' 
TCOON,ioos:station:TCOON:003:1,2012-06-04T05:00:00Z,26.8015,-97.4706,0.0,8.1,145.0,10.0,'11111222,11111222,11111222' 
TCOON,ioos:station:TCOON:003:1,2012-06-04T06:00:00Z,26.8015,-97.4706,0.0,8.2,147.0,10.6,'11111222,11111222,11111222' 
TCOON,ioos:station:TCOON:003:1,2012-06-04T07:00:00Z,26.8015,-97.4706,0.0,8.0,156.0,9.6,'11111222,11111222,11111222' 
TCOON,ioos:station:TCOON:003:1,2012-06-04T08:00:00Z,26.8015,-97.4706,0.0,7.7,164.0,9.6,'11111222,11111222,11111222' 
TCOON,ioos:station:TCOON:003:1,2012-06-04T09:00:00Z,26.8015,-97.4706,0.0,7.7,146.0,9.1,'11111222,11111222,11111222' 
TCOON,ioos:station:TCOON:003:1,2012-06-04T10:00:00Z,26.8015,-97.4706,0.0,7.0,146.0,8.0,'11111222,11111222,11111222' 
TCOON,ioos:station:TCOON:003:1,2012-06-04T11:00:00Z,26.8015,-97.4706,0.0,5.7,136.0,6.5,'11111222,11111222,11111222' 
TCOON,ioos:station:TCOON:003:1,2012-06-04T12:00:00Z,26.8015,-97.4706,0.0,3.9,126.0,4.7,'11111222,11111222,11111222' 
TCOON,ioos:station:TCOON:003:1,2012-06-04T13:00:00Z,26.8015,-97.4706,0.0,5.2,142.0,6.9,'11111222,11111222,11111222' 
TCOON,ioos:station:TCOON:003:1,2012-06-04T14:00:00Z,26.8015,-97.4706,0.0,6.8,154.0,7.5,'11111222,11111222,11111222' 
TCOON,ioos:station:TCOON:003:1,2012-06-04T15:00:00Z,26.8015,-97.4706,0.0,6.1,158.0,7.0,'11111222,11111222,11111222' 
TCOON,ioos:station:TCOON:003:1,2012-06-04T16:00:00Z,26.8015,-97.4706,0.0,7.3,155.0,8.2,'11111222,11111222,11111222' 
TCOON,ioos:station:TCOON:003:1,2012-06-04T17:00:00Z,26.8015,-97.4706,0.0,7.6,149.0,9.9,'11111222,11111222,11111222' 
TCOON,ioos:station:TCOON:003:1,2012-06-04T18:00:00Z,26.8015,-97.4706,0.0,7.9,130.0,11.1,'11111222,11111222,11111222' 
TCOON,ioos:station:TCOON:003:1,2012-06-04T19:00:00Z,26.8015,-97.4706,0.0,9.8,132.0,11.2,'11111222,11111222,11111222' 
TCOON,ioos:station:TCOON:003:1,2012-06-04T20:00:00Z,26.8015,-97.4706,0.0,9.4,138.0,11.5,'11111222,11111222,11111222' 
TCOON,ioos:station:TCOON:003:1,2012-06-04T21:00:00Z,26.8015,-97.4706,0.0,10.4,132.0,12.3,'11111222,11111222,11111222' 
TCOON,ioos:station:TCOON:003:1,2012-06-04T22:00:00Z,26.8015,-97.4706,0.0,9.6,136.0,11.1,'11111222,11111222,11111222' 
TCOON,ioos:station:TCOON:003:1,2012-06-04T23:00:00Z,26.8015,-97.4706,0.0,8.6,137.0,10.8,'11111222,11111222,11111222' 
TCOON,ioos:station:TCOON:003:1,2012-06-05T00:00:00Z,26.8015,-97.4706,0.0,8.2,141.0,9.9,'11111222,11111222,11111222' 
TCOON,ioos:station:TCOON:003:1,2012-06-05T01:00:00Z,26.8015,-97.4706,0.0,7.5,139.0,8.7,'11111222,11111222,11111222' 
TCOON,ioos:station:TCOON:003:1,2012-06-05T02:00:00Z,26.8015,-97.4706,0.0,6.5,126.0,7.7,'11111222,11111222,11111222' 
TCOON,ioos:station:TCOON:003:1,2012-06-05T03:00:00Z,26.8015,-97.4706,0.0,7.2,135.0,8.2,'11111222,11111222,11111222' 
TCOON,ioos:station:TCOON:003:1,2012-06-05T04:00:00Z,26.8015,-97.4706,0.0,6.8,146.0,8.9,'11111222,11111222,11111222' 
TCOON,ioos:station:TCOON:003:1,2012-06-05T05:00:00Z,26.8015,-97.4706,0.0,8.1,161.0,9.2,'11111222,11111222,11111222' 
TCOON,ioos:station:TCOON:003:1,2012-06-05T06:00:00Z,26.8015,-97.4706,0.0,6.5,186.0,8.8,'11111222,11111222,11111222' 
TCOON,ioos:station:TCOON:003:1,2012-06-05T07:00:00Z,26.8015,-97.4706,0.0,4.4,199.0,6.2,'11111222,11111222,11111222' 
TCOON,ioos:station:TCOON:003:1,2012-06-05T08:00:00Z,26.8015,-97.4706,0.0,2.3,264.0,2.9,'11111222,11111222,11111222' 
TCOON,ioos:station:TCOON:003:1,2012-06-05T09:00:00Z,26.8015,-97.4706,0.0,2.4,273.0,2.7,'11111222,11111222,11111222' 
TCOON,ioos:station:TCOON:003:1,2012-06-05T10:00:00Z,26.8015,-97.4706,0.0,3.3,34.0,3.8,'11111222,11111222,11111222' 
TCOON,ioos:station:TCOON:003:1,2012-06-05T11:00:00Z,26.8015,-97.4706,0.0,3.8,56.0,5.9,'11111222,11111222,11111222' 
TCOON,ioos:station:TCOON:003:1,2012-06-05T12:00:00Z,26.8015,-97.4706,0.0,2.3,125.0,2.7,'11111222,11111222,11111222' 
TCOON,ioos:station:TCOON:003:1,2012-06-05T13:00:00Z,26.8015,-97.4706,0.0,2.0,96.0,2.7,'11111222,11111222,11111222' 
TCOON,ioos:station:TCOON:003:1,2012-06-05T14:00:00Z,26.8015,-97.4706,0.0,2.3,120.0,2.8,'11111222,11111222,11111222' 
TCOON,ioos:station:TCOON:003:1,2012-06-05T15:00:00Z,26.8015,-97.4706,0.0,4.4,103.0,5.7,'11111222,11111222,11111222' 
TCOON,ioos:station:TCOON:003:1,2012-06-05T16:00:00Z,26.8015,-97.4706,0.0,4.7,96.0,6.6,'11111222,11111222,11111222' 
TCOON,ioos:station:TCOON:003:1,2012-06-05T17:00:00Z,26.8015,-97.4706,0.0,5.1,119.0,7.2,'11111222,11111222,11111222' 
TCOON,ioos:station:TCOON:003:1,2012-06-05T18:00:00Z,26.8015,-97.4706,0.0,4.8,112.0,5.9,'11111222,11111222,11111222' 
TCOON,ioos:station:TCOON:003:1,2012-06-05T19:00:00Z,26.8015,-97.4706,0.0,4.3,122.0,6.2,'11111222,11111222,11111222' 
TCOON,ioos:station:TCOON:003:1,2012-06-05T20:00:00Z,26.8015,-97.4706,0.0,7.1,88.0,8.4,'11111222,11111222,11111222' 
TCOON,ioos:station:TCOON:003:1,2012-06-05T21:00:00Z,26.8015,-97.4706,0.0,6.0,107.0,7.3,'11111222,11111222,11111222' 
TCOON,ioos:station:TCOON:003:1,2012-06-05T22:00:00Z,26.8015,-97.4706,0.0,6.7,113.0,7.7,'11111222,11111222,11111222' 
TCOON,ioos:station:TCOON:003:1,2012-06-05T23:00:00Z,26.8015,-97.4706,0.0,5.2,143.0,5.8,'11111222,11111222,11111222' 
TCOON,ioos:station:TCOON:003:1,2012-06-06T00:00:00Z,26.8015,-97.4706,0.0,4.0,115.0,4.7,'11111222,11111222,11111222' 
TCOON,ioos:station:TCOON:003:1,2012-06-06T01:00:00Z,26.8015,-97.4706,0.0,4.3,116.0,5.7,'11111222,11111222,11111222' 
TCOON,ioos:station:TCOON:003:1,2012-06-06T02:00:00Z,26.8015,-97.4706,0.0,5.3,133.0,5.8,'11111222,11111222,11111222' 
TCOON,ioos:station:TCOON:003:1,2012-06-06T03:00:00Z,26.8015,-97.4706,0.0,4.2,146.0,4.7,'11111222,11111222,11111222' 
TCOON,ioos:station:TCOON:003:1,2012-06-06T04:00:00Z,26.8015,-97.4706,0.0,3.8,145.0,4.8,'11111222,11111222,11111222' 
TCOON,ioos:station:TCOON:003:1,2012-06-06T05:00:00Z,26.8015,-97.4706,0.0,3.2,153.0,3.5,'11111222,11111222,11111222' 
TCOON,ioos:station:TCOON:003:1,2012-06-06T06:00:00Z,26.8015,-97.4706,0.0,1.6,271.0,2.2,'11111222,11111222,11111222' 
TCOON,ioos:station:TCOON:003:1,2012-06-06T07:00:00Z,26.8015,-97.4706,0.0,3.2,262.0,3.8,'11111222,11111222,11111222' 
TCOON,ioos:station:TCOON:003:1,2012-06-06T08:00:00Z,26.8015,-97.4706,0.0,2.6,263.0,3.0,'11111222,11111222,11111222' 
TCOON,ioos:station:TCOON:003:1,2012-06-06T09:00:00Z,26.8015,-97.4706,0.0,1.8,236.0,2.5,'11111222,11111222,11111222' 
TCOON,ioos:station:TCOON:003:1,2012-06-06T10:00:00Z,26.8015,-97.4706,0.0,0.1,186.0,0.5,'11111222,11111222,11111222' 
TCOON,ioos:station:TCOON:003:1,2012-06-06T11:00:00Z,26.8015,-97.4706,0.0,1.6,97.0,1.9,'11111222,11111222,11111222' 
TCOON,ioos:station:TCOON:003:1,2012-06-06T12:00:00Z,26.8015,-97.4706,0.0,1.2,311.0,1.6,'11111222,11111222,11111222' 
TCOON,ioos:station:TCOON:003:1,2012-06-06T13:00:00Z,26.8015,-97.4706,0.0,1.4,344.0,1.9,'11111222,11111222,11111222' 
TCOON,ioos:station:TCOON:003:1,2012-06-06T14:00:00Z,26.8015,-97.4706,0.0,0.7,108.0,1.9,'11111222,11111222,11111222' 
TCOON,ioos:station:TCOON:003:1,2012-06-06T15:00:00Z,26.8015,-97.4706,0.0,2.4,150.0,3.5,'11111222,11111222,11111222' 
TCOON,ioos:station:TCOON:003:1,2012-06-06T16:00:00Z,26.8015,-97.4706,0.0,2.8,133.0,4.9,'11111222,11111222,11111222' 
TCOON,ioos:station:TCOON:003:1,2012-06-06T17:00:00Z,26.8015,-97.4706,0.0,4.7,124.0,5.7,'11111222,11111222,11111222' 
TCOON,ioos:station:TCOON:003:1,2012-06-06T18:00:00Z,26.8015,-97.4706,0.0,4.6,107.0,6.2,'11111222,11111222,11111222' 
TCOON,ioos:station:TCOON:003:1,2012-06-06T19:00:00Z,26.8015,-97.4706,0.0,7.9,111.0,10.5,'11111222,11111222,11111222' 
TCOON,ioos:station:TCOON:003:1,2012-06-06T20:00:00Z,26.8015,-97.4706,0.0,8.4,111.0,9.9,'11111222,11111222,11111222' 
TCOON,ioos:station:TCOON:003:1,2012-06-06T21:00:00Z,26.8015,-97.4706,0.0,8.0,112.0,9.4,'11111222,11111222,11111222' 
TCOON,ioos:station:TCOON:003:1,2012-06-06T22:00:00Z,26.8015,-97.4706,0.0,8.1,119.0,9.7,'11111222,11111222,11111222' 
TCOON,ioos:station:TCOON:003:1,2012-06-06T23:00:00Z,26.8015,-97.4706,0.0,7.1,114.0,8.4,'11111222,11111222,11111222' 
TCOON,ioos:station:TCOON:003:1,2012-06-07T00:00:00Z,26.8015,-97.4706,0.0,7.4,123.0,8.8,'11111222,11111222,11111222' 
TCOON,ioos:station:TCOON:003:1,2012-06-07T01:00:00Z,26.8015,-97.4706,0.0,7.2,127.0,8.6,'11111222,11111222,11111222' 
TCOON,ioos:station:TCOON:003:1,2012-06-07T02:00:00Z,26.8015,-97.4706,0.0,6.6,129.0,7.4,'11111222,11111222,11111222' 
TCOON,ioos:station:TCOON:003:1,2012-06-07T03:00:00Z,26.8015,-97.4706,0.0,5.9,136.0,6.9,'11111222,11111222,11111222' 
TCOON,ioos:station:TCOON:003:1,2012-06-07T04:00:00Z,26.8015,-97.4706,0.0,5.0,145.0,6.5,'11111222,11111222,11111222' 
TCOON,ioos:station:TCOON:003:1,2012-06-07T05:00:00Z,26.8015,-97.4706,0.0,5.2,132.0,6.1,'11111222,11111222,11111222' 
TCOON,ioos:station:TCOON:003:1,2012-06-07T06:00:00Z,26.8015,-97.4706,0.0,4.1,120.0,4.8,'11111222,11111222,11111222' 
TCOON,ioos:station:TCOON:003:1,2012-06-07T07:00:00Z,26.8015,-97.4706,0.0,3.7,132.0,4.3,'11111222,11111222,11111222' 
TCOON,ioos:station:TCOON:003:1,2012-06-07T08:00:00Z,26.8015,-97.4706,0.0,2.5,137.0,2.9,'11111222,11111222,11111222' 
TCOON,ioos:station:TCOON:003:1,2012-06-07T09:00:00Z,26.8015,-97.4706,0.0,3.6,157.0,4.3,'11111222,11111222,11111222' 
TCOON,ioos:station:TCOON:003:1,2012-06-07T10:00:00Z,26.8015,-97.4706,0.0,2.8,125.0,3.4,'11111222,11111222,11111222' 
TCOON,ioos:station:TCOON:003:1,2012-06-07T11:00:00Z,26.8015,-97.4706,0.0,1.1,261.0,2.2,'11111222,11111222,11111222' 
TCOON,ioos:station:TCOON:003:1,2012-06-07T12:00:00Z,26.8015,-97.4706,0.0,1.5,339.0,1.9,'11111222,11111222,11111222' 
TCOON,ioos:station:TCOON:003:1,2012-06-07T13:00:00Z,26.8015,-97.4706,0.0,1.7,276.0,2.0,'11111222,11111222,11111222' 
TCOON,ioos:station:TCOON:003:1,2012-06-07T14:00:00Z,26.8015,-97.4706,0.0,1.8,129.0,3.1,'11111222,11111222,11111222' 
TCOON,ioos:station:TCOON:003:1,2012-06-07T15:00:00Z,26.8015,-97.4706,0.0,3.0,87.0,5.3,'11111222,11111222,11111222' 
TCOON,ioos:station:TCOON:003:1,2012-06-07T16:00:00Z,26.8015,-97.4706,0.0,6.0,74.0,7.2,'11111222,11111222,11111222' 
TCOON,ioos:station:TCOON:003:1,2012-06-07T17:00:00Z,26.8015,-97.4706,0.0,5.1,63.0,7.4,'11111222,11111222,11111222' 
TCOON,ioos:station:TCOON:003:1,2012-06-07T18:00:00Z,26.8015,-97.4706,0.0,5.2,63.0,6.7,'11111222,11111222,11111222' 
TCOON,ioos:station:TCOON:003:1,2012-06-07T19:00:00Z,26.8015,-97.4706,0.0,7.8,54.0,10.0,'11111222,11111222,11111222' 
TCOON,ioos:station:TCOON:003:1,2012-06-07T20:00:00Z,26.8015,-97.4706,0.0,8.1,79.0,9.6,'11111222,11111222,11111222' 
TCOON,ioos:station:TCOON:003:1,2012-06-07T21:00:00Z,26.8015,-97.4706,0.0,8.3,67.0,11.0,'11111222,11111222,11111222' 
TCOON,ioos:station:TCOON:003:1,2012-06-07T22:00:00Z,26.8015,-97.4706,0.0,7.8,69.0,10.5,'11111222,11111222,11111222' 
TCOON,ioos:station:TCOON:003:1,2012-06-07T23:00:00Z,26.8015,-97.4706,0.0,7.7,80.0,9.0,'11111222,11111222,11111222' 
TCOON,ioos:station:TCOON:003:1,2012-06-08T00:00:00Z,26.8015,-97.4706,0.0,6.5,103.0,7.8,'11111222,11111222,11111222' 
TCOON,ioos:station:TCOON:003:1,2012-06-08T01:00:00Z,26.8015,-97.4706,0.0,6.3,106.0,7.9,'11111222,11111222,11111222' 
TCOON,ioos:station:TCOON:003:1,2012-06-08T02:00:00Z,26.8015,-97.4706,0.0,5.1,114.0,5.9,'11111222,11111222,11111222' 
TCOON,ioos:station:TCOON:003:1,2012-06-08T03:00:00Z,26.8015,-97.4706,0.0,4.3,95.0,4.9,'11111222,11111222,11111222' 
TCOON,ioos:station:TCOON:003:1,2012-06-08T04:00:00Z,26.8015,-97.4706,0.0,4.1,84.0,4.8,'11111222,11111222,11111222' 
TCOON,ioos:station:TCOON:003:1,2012-06-08T05:00:00Z,26.8015,-97.4706,0.0,3.8,84.0,4.7,'11111222,11111222,11111222' 
TCOON,ioos:station:TCOON:003:1,2012-06-08T06:00:00Z,26.8015,-97.4706,0.0,3.6,113.0,4.8,'11111222,11111222,11111222' 
TCOON,ioos:station:TCOON:003:1,2012-06-08T07:00:00Z,26.8015,-97.4706,0.0,3.8,106.0,4.4,'11111222,11111222,11111222' 
TCOON,ioos:station:TCOON:003:1,2012-06-08T08:00:00Z,26.8015,-97.4706,0.0,2.9,101.0,3.3,'11111222,11111222,11111222' 
TCOON,ioos:station:TCOON:003:1,2012-06-08T09:00:00Z,26.8015,-97.4706,0.0,2.4,96.0,3.3,'11111222,11111222,11111222' 
TCOON,ioos:station:TCOON:003:1,2012-06-08T10:00:00Z,26.8015,-97.4706,0.0,1.6,84.0,2.1,'11111222,11111222,11111222' 
TCOON,ioos:station:TCOON:003:1,2012-06-08T11:00:00Z,26.8015,-97.4706,0.0,1.1,75.0,1.5,'11111222,11111222,11111222' 
TCOON,ioos:station:TCOON:003:1,2012-06-08T12:00:00Z,26.8015,-97.4706,0.0,1.9,87.0,2.5,'11111222,11111222,11111222' 
TCOON,ioos:station:TCOON:003:1,2012-06-08T13:00:00Z,26.8015,-97.4706,0.0,1.7,101.0,2.8,'11111222,11111222,11111222' 
TCOON,ioos:station:TCOON:003:1,2012-06-08T14:00:00Z,26.8015,-97.4706,0.0,2.1,68.0,3.3,'11111222,11111222,11111222' 
TCOON,ioos:station:TCOON:003:1,2012-06-08T15:00:00Z,26.8015,-97.4706,0.0,2.7,44.0,4.0,'11111222,11111222,11111222' 
TCOON,ioos:station:TCOON:003:1,2012-06-08T16:00:00Z,26.8015,-97.4706,0.0,4.5,34.0,6.3,'11111222,11111222,11111222' 
TCOON,ioos:station:TCOON:003:1,2012-06-08T17:00:00Z,26.8015,-97.4706,0.0,7.3,59.0,9.6,'11111222,11111222,11111222' 
TCOON,ioos:station:TCOON:003:1,2012-06-08T18:00:00Z,26.8015,-97.4706,0.0,7.7,47.0,9.9,'11111222,11111222,11111222' 
TCOON,ioos:station:TCOON:003:1,2012-06-08T19:00:00Z,26.8015,-97.4706,0.0,8.7,66.0,12.0,'11111222,11111222,11111222' 
TCOON,ioos:station:TCOON:003:1,2012-06-08T20:00:00Z,26.8015,-97.4706,0.0,8.3,69.0,10.9,'11111222,11111222,11111222' 
TCOON,ioos:station:TCOON:003:1,2012-06-08T21:00:00Z,26.8015,-97.4706,0.0,7.6,69.0,9.5,'11111222,11111222,11111222' 
TCOON,ioos:station:TCOON:003:1,2012-06-08T22:00:00Z,26.8015,-97.4706,0.0,6.5,69.0,8.2,'11111222,11111222,11111222' 
TCOON,ioos:station:TCOON:003:1,2012-06-08T23:00:00Z,26.8015,-97.4706,0.0,6.9,74.0,8.0,'11111222,11111222,11111222' 
TCOON,ioos:station:TCOON:003:1,2012-06-09T00:00:00Z,26.8015,-97.4706,0.0,6.5,80.0,7.7,'11111222,11111222,11111222' 
TCOON,ioos:station:TCOON:003:1,2012-06-09T01:00:00Z,26.8015,-97.4706,0.0,5.8,76.0,6.7,'11111222,11111222,11111222' 
TCOON,ioos:station:TCOON:003:1,2012-06-09T02:00:00Z,26.8015,-97.4706,0.0,4.5,70.0,5.9,'11111222,11111222,11111222' 
TCOON,ioos:station:TCOON:003:1,2012-06-09T03:00:00Z,26.8015,-97.4706,0.0,4.2,86.0,4.8,'11111222,11111222,11111222' 
TCOON,ioos:station:TCOON:003:1,2012-06-09T04:00:00Z,26.8015,-97.4706,0.0,2.6,97.0,2.9,'11111222,11111222,11111222' 
TCOON,ioos:station:TCOON:003:1,2012-06-09T05:00:00Z,26.8015,-97.4706,0.0,1.9,95.0,2.2,'11111222,11111222,11111222' 
TCOON,ioos:station:TCOON:003:1,2012-06-09T06:00:00Z,26.8015,-97.4706,0.0,2.2,95.0,2.5,'11111222,11111222,11111222' 
TCOON,ioos:station:TCOON:003:1,2012-06-09T07:00:00Z,26.8015,-97.4706,0.0,1.3,107.0,1.6,'11111222,11111222,11111222' 
TCOON,ioos:station:TCOON:003:1,2012-06-09T08:00:00Z,26.8015,-97.4706,0.0,1.3,257.0,1.7,'11111222,11111222,11111222' 
TCOON,ioos:station:TCOON:003:1,2012-06-09T09:00:00Z,26.8015,-97.4706,0.0,1.6,281.0,1.8,'11111222,11111222,11111222' 
TCOON,ioos:station:TCOON:003:1,2012-06-09T10:00:00Z,26.8015,-97.4706,0.0,1.8,322.0,2.0,'11111222,11111222,11111222' 
TCOON,ioos:station:TCOON:003:1,2012-06-09T11:00:00Z,26.8015,-97.4706,0.0,1.7,318.0,2.0,'11111222,11111222,11111222' 